Hourly Data Report for June 27, 2012

MONCTON/GREATER MONCTON ROMEO LEBLANC INTL A
NEW BRUNSWICK

46°06'44.000" N
64°40'43.000" W
70.70 m
8103201
71705
YQM

Download Data

Hourly Data (June 2012)
Hourly Data Report for June 27, 2012
TIME
LST
Temp Definition
°C
Dew Point Definition
°C
Rel Hum Definition
%
Precip. Amount Definition
mm

Wind Dir Definition
10's deg

Wind Spd Definition
km/h
Visibility Definition
km
Stn Press Definition
kPa
Hmdx Definition


Wind Chill Definition


Weather Definition


00:00 16.1 15.6 97   15 20 10.0 99.20     LegendNANA
01:00 16.1 15.8 98   14 13 10.0 99.24     LegendNANA
02:00 15.9 15.6 98   13 13 10.0 99.28     Mostly Cloudy
03:00 15.4 15.1 98   13 15 10.0 99.27     LegendNANA
04:00 15.2 14.9 98   14 12 10.0 99.33     LegendNANA
05:00 15.1 14.8 98   14 17 10.0 99.37     Mostly Cloudy
06:00 15.8 15.2 96   14 21 10.0 99.41     LegendNANA
07:00 17.0 15.4 90   15 18 10.0 99.45     LegendNANA
08:00 16.6 15.0 90   14 19 10.0 99.51     Mostly Cloudy
09:00 18.4 14.9 80   15 26 10.0 99.54     LegendNANA
10:00 18.5 14.7 78   16 26 10.0 99.55     LegendNANA
11:00 19.7 14.8 73   15 29 10.0 99.54     Mostly Cloudy
12:00 18.4 14.2 76   15 26 10.0 99.57     LegendNANA
13:00 19.0 14.7 76   16 21 10.0 99.53     LegendNANA
14:00 19.7 14.6 72   16 25 10.0 99.49     Mostly Cloudy
15:00 19.9 14.8 72   15 21 10.0 99.42     LegendNANA
16:00 20.7 14.9 69   14 26 10.0 99.38 25   LegendNANA
17:00 20.3 14.3 68   15 26 10.0 99.39     Mostly Cloudy
18:00 19.6 13.8 69   15 18 10.0 99.37     LegendNANA
19:00 17.7 13.3 75   16 22 10.0 99.40     Rain Showers
20:00 17.0 13.4 79   14 9 10.0 99.42     Mostly Cloudy
21:00 15.7 14.1 90   15 10 10.0 99.45     Rain Showers
22:00 15.0 14.2 95   14 10 10.0 99.44     Rain Showers
23:00 14.6 13.8 95   14 14 10.0 99.41     Rain

Notes on Data Quality.

Legend

  • E = Estimated
  • M = Missing
  • NA = Not Available*
  • [empty] = Indicates an unobserved value
Date modified: